Regional Weather Roundup
Issued by NWS

Home | Current Version | Previous Version | Text Only | Print | Product List | Glossary On
Versions: 1 2 3 4 5 6 7 8 9 10 11 12 13 14 15 16 17 18 19 20 21 22 23 24 25 26 27 28 29 30 31 32 33 34 35 36 37 38 39 40 41 42 43 44 45 46 47 48 49 50
000
ASUS46 KPQR 240710
RWROR

OREGON REGIONAL WEATHER ROUNDUP
NATIONAL WEATHER SERVICE PORTLAND OR
1200 AM PDT THU JUL 24 2014

NOTE: "FAIR" INDICATES FEW OR NO CLOUDS BELOW 12,000 FEET WITH
NO SIGNIFICANT WEATHER AND/OR OBSTRUCTIONS TO VISIBILITY.

ORZ001>013-240800-
NORTHWEST OREGON


CITY           SKY/WX    TMP DP  RH WIND       PRES   REMARKS
ASTORIA        LGT RAIN  57  54  89 S15G25    30.07S
NEWPORT        PTCLDY    55  54  94 S12       30.22R
PORTLAND       MOCLDY    60  52  74 S12       30.15S
VANCOUVER WA   MOCLDY    60  50  69 S8        30.15R
SCAPPOOSE      CLOUDY    59  51  75 SW8       30.13R
HILLSBORO      CLOUDY    59  49  69 S9        30.14R
AURORA         CLOUDY    58  51  78 S8        30.17R
MCMINNVILLE    PTCLDY    58  52  80 S13       30.16S
SALEM          CLOUDY    59  51  75 S13       30.17R
CORVALLIS      CLOUDY    55  52  88 S9        30.20S
EUGENE         CLEAR     53  49  86 S7        30.22S
$$

ORZ021-028-240800-
SOUTHWEST OREGON


CITY           SKY/WX    TMP DP  RH WIND       PRES   REMARKS
NORTH BEND     MOCLDY    57  55  94 S3        30.25S
BROOKINGS      SUNNY     53  51  93 CALM      30.24S
ROSEBURG       PTCLDY    54  48  80 CALM      30.24R
SEXTON SUMMIT  PTCLDY    43  42  97 VRB3      30.25R
MEDFORD        CLOUDY    60  47  61 N6        30.23R
$$

ORZ009-041-240800-
COLUMBIA GORGE


CITY           SKY/WX    TMP DP  RH WIND       PRES   REMARKS
TROUTDALE      CLOUDY    60  51  72 S5        30.15R
THE DALLES     MOCLDY    60  50  69 NW15G22   30.11R
$$

ORZ029>031-042>050-061>064-240800-
EASTERN OREGON


CITY           SKY/WX    TMP DP  RH WIND       PRES   REMARKS
REDMOND        CLEAR     41  37  86 E3        30.18S
BEND           SUNNY     46  37  71 E5        30.20R
KLAMATH FALLS  CLEAR     50  42  74 NW7       30.21R
LAKEVIEW       CLEAR     54  37  54 SE3       30.22R
HERMISTON      CLEAR     56  47  71 S8        30.11R
PENDLETON      CLEAR     56  46  69 SW8       30.13R
JOHN DAY       CLOUDY    56  45  67 W13       30.17R
MEACHAM        MOCLDY    49  45  86 CALM      30.17R
LA GRANDE      CLOUDY    57  39  51 NW6       30.14R
BAKER CITY     MOCLDY    55  44  66 NW13      30.12R
BURNS          CLEAR     54  42  64 W9G18     30.16R
ROME             N/A     63  37  38 NE8       30.08R
ONTARIO        CLEAR     67  48  50 NW23G32   30.00R
$$


USA.gov is the U.S. government's official web portal to all federal, state and local government web resources and services.